sat.trackr.live / text

‹ back to catalog

ONEWEB-0595

NORAD 54661 · 2022-166V

PAYLOAD ACTIVE UNKNOWN

§ Identity

Operator
Country
UK
Launch date
2022-12-08
Launch site
AFETR
Launch vehicle
Mass (kg)
RCS (m²)

Purposes: comms

External: N2YO · Heavens-Above · Gunter

§ Orbital elements

Epoch: 2026-05-25T00:24:20.521152Z

Period
108.94 min
Inclination
87.9261°
Eccentricity
0.0001834
Mean motion
13.21825494 rev/d
Perigee alt
1,176.4 km
Apogee alt
1,179.1 km
Semi-major
7,555.9 km
B*
-6.2299e-5
RAAN
248.5813°
Arg perigee
105.6774°
Mean anomaly
254.4563°
Rev number
16,847

§ Raw data

ONEWEB-05951 54661U 22166V   26145.01690418 -.00000013  00000+0 -62299-4 0  99932 54661  87.9261 248.5813 0001834 105.6774 254.4563 13.21825494168478

JSON: /api/v1/satellites/54661 · /tle

For live sub-satellite position, see the globe view (requires WebGL).

§ Visibility from observer

Set your observer location to see the next 7 days of passes ≥ 10°. The values pass through the URL so the page stays shareable.

No JS? Fill the form by hand. The geolocation button needs JavaScript.